[Iaude] MPEC B92: 2024 BH2 [a=2.26,e=0.58,i=3.9,H=24.3]
    mpec at marsden.cfa.harvard.edu 
    mpec at marsden.cfa.harvard.edu
       
    Mon Jan 22 09:28:49 EST 2024
    
    
  
M.P.E.C. 2024-B92                              Issued 2024 January 22, 14:26 UT
     The Minor Planet Electronic Circulars contain information on unusual
         minor planets, routine data on comets and natural satellites,
         and occasional editorial announcements.  They are published
    on behalf of Division F of the International Astronomical Union by the
          Minor Planet Center, Smithsonian Astrophysical Observatory,
                          Cambridge, MA 02138, U.S.A.
			  
             Prepared using the Tamkin Foundation Computer Network
                              MPC at CFA.HARVARD.EDU
            URL https://www.minorplanetcenter.net/    ISSN 1523-6714
                                    2024 BH2                                    
Observations:
     K24B02H* C2024 01 20.47168411 04 03.276+24 49 29.01         22.28wXEB092F52
     K24B02H  C2024 01 20.48412011 04 01.611+24 49 35.12         21.78wXEB092F52
     K24B02H  C2024 01 20.49664611 03 59.893+24 49 40.62         22.43wXEB092F52
     K24B02H  C2024 01 20.61818111 03 43.190+24 50 30.03         22.03GVEB092F52
     K24B02H  C2024 01 20.61882511 03 43.109+24 50 30.38         22.20GVEB092F52
     K24B02H  C2024 01 21.45856911 02 10.626+24 55 54.13         21.88GVEB092F51
     K24B02H  C2024 01 21.48435611 02 07.187+24 56 05.66         21.97GVEB092F51
     K24B02H  C2024 01 21.49718311 02 05.481+24 56 11.18         21.48GVEB092F51
     K24B02H 7C2024 01 22.06935511 01 00.397+24 59 28.19         21.5 GVEB092Z84
     K24B02H 7C2024 01 22.11148511 00 54.840+24 59 44.31         21.7 GVEB092Z84
     K24B02H 7C2024 01 22.16605911 00 47.654+25 00 03.82         22.4 GVEB092Z84
Observer details:
F51 Pan-STARRS 1, Haleakala.  Observers J. Herman, T. Lowe, P. Minguez, A.
    Schultz, I. Smith.  Measurers K. Chambers, T. de Boer, J. Fairlamb, H.
    Gao, M. Huber, C.-C. Lin, E. Magnier, Y. Ramanjooloo, R. Wainscoat, R.
    Weryk.  1.8-m Ritchey-Chretien + CCD.
F52 Pan-STARRS 2, Haleakala.  Observers J. Herman, T. Lowe, P. Minguez, A.
    Schultz, I. Smith.  Measurers K. Chambers, T. de Boer, J. Fairlamb, H.
    Gao, M. Huber, C.-C. Lin, E. Magnier, Y. Ramanjooloo, R. Wainscoat, R.
    Weryk.  1.8-m Ritchey-Chretien + CCD.
Z84 Calar Alto-Schmidt.  Observers F. Ocana, R. Kresken, M. Micheli, L.
    Conversi.  Measurers F. Ocana, M. Micheli.  0.8-m f/3 Schmidt + CCD.
Orbital elements:
2024 BH2                                                 Earth MOID = 0.0110 AU
Epoch 2023 Sept. 13.0 TT = JDT 2460200.5                MPC                     
M 335.07858              (2000.0)            P               Q                  
n   0.28970594     Peri.  347.50412     +0.29608879     -0.95269303             
a   2.2620270      Node    85.24235     +0.88216148     +0.24521192             
e   0.5772505      Incl.    3.94781     +0.36622745     +0.17957479             
P   3.40           H   24.39          G   0.15           U   9                  
Residuals in seconds of arc
240120 F52  0.1-  0.1+    240120 F52  0.1+  0.0     240122 Z84  0.2+  0.1+
240120 F52  0.1+  0.3+    240121 F51  0.0   0.0     240122 Z84  0.1-  0.1-
240120 F52  0.2-  0.0     240121 F51  0.1-  0.0     240122 Z84  0.0   0.0
240120 F52  0.0   0.1-    240121 F51  0.1+  0.0
Ephemeris:
2024 BH2                 a,e,i = 2.26, 0.58, 4                   q = 0.9563
Date    TT    R. A. (2000) Decl.     Delta      r    Elong.  Phase     V
2023 12 23    13 15 36.1 +08 36 39   0.03152 0.9770    77.0   101.2    20.5
...
2024 01 07    11 33 22.7 +22 24 23   0.09872 1.0354   119.4    55.8    21.5
...
2024 01 15    11 14 52.3 +24 05 11   0.1363  1.0787   131.4    43.1    21.9
...
2024 01 21    11 03 00.8 +24 52 58   0.1657  1.1156   139.7    34.8    22.2
2024 01 22    11 01 07.2 +24 59 15   0.1707  1.1220   141.0    33.5    22.2
2024 01 23    10 59 14.6 +25 05 05   0.1758  1.1285   142.4    32.2    22.2
...
2024 01 29    10 48 20.5 +25 31 34   0.2076  1.1692   150.0    24.9    22.5
...
2024 02 06    10 34 51.8 +25 45 33   0.2545  1.2270   159.0    16.7    22.8
...
2024 02 21    10 15 09.5 +25 12 01   0.3617  1.3422   165.7    10.5    23.5
A. U. Tomatic                (C) Copyright 2024 MPC           M.P.E.C. 2024-B92
    
    
More information about the Iaude
mailing list